Weather History for KLWS - December, 2013

Change the Weather History Date:

Wednesday, December 18, 2013

  Actual Average Record
Temperature  
Mean Temperature 37 °F 33 °F  
Max Temperature 42 °F 39 °F 66 °F (1917)
Min Temperature 31 °F 27 °F -8 °F (1924)
Degree Days  
Heating Degree Days 28 32  
Month to date heating degree days 655 554  
Since 1 July heating degree days 2009 1794  
Cooling Degree Days 0 0  
Month to date cooling degree days 0 0  
Year to date cooling degree days 1178 807  
Moisture  
Dew Point 30 °F    
Average Humidity 77    
Maximum Humidity 89    
Minimum Humidity 64    
Precipitation  
Precipitation 0.08 in 0.03 in 0.35 in (1884)
Month to date precipitation 0.43 0.55  
Year to date precipitation 9.19 11.89  
Snow  
Snow 0.00 in 0.20 in 2.60 in (1983)
Month to date snowfall 0.7 1.9  
Since 1 July snowfall 0.7 3.7  
Snow Depth 0.00 in    
Sea Level Pressure  
Sea Level Pressure 29.96 in    
Wind  
Wind Speed 2 mph (SW)    
Max Wind Speed 12 mph    
Max Gust Speed 16 mph    
Visibility 8 miles    
Events Rain    
T = Trace of Precipitation, MM = Missing Value Source: NWS Daily Summary

Daily Weather History Graph

Daily Weather History Graph

Search for Another Location

Airport or City:

Trip Planner

Search our weather history database for the weather conditions in past years. The results will help you decide how hot, cold, wet, or windy it might be!

Date:

Astronomy

Dec. 18, 2013 Rise Set
Actual Time 7:26 AM PST 4:02 PM PST
Civil Twilight 6:51 AM PST 4:37 PM PST
Nautical Twilight 6:13 AM PST 5:16 PM PST
Astronomical Twilight 5:36 AM PST 5:52 PM PST
Moon 5:44 PM PST (12/18) 8:05 AM PST (12/18)
Length of Visible Light 9h 45m
Length of Day
8h 35m
Full, 98% of the Moon is Illuminated
Dec 18
Full
Dec 25
Last Quarter
Jan 1
New
Jan 7
First Quarter
Jan 15
Full

Hourly Weather History & Observations

Time (PST) Temp. Windchill Dew Point Humidity Pressure Visibility Wind Dir Wind Speed Gust Speed Precip Events Conditions
12:56 AM 37.9 °F 35.5 °F 26.1 °F 62% 30.01 in 10.0 mi Variable 3.5 mph - N/A   Clear
1:56 AM 33.1 °F 30.0 °F 27.0 °F 78% 30.03 in 10.0 mi SSE 3.5 mph - N/A   Clear
2:56 AM 35.1 °F - 27.0 °F 72% 30.03 in 10.0 mi Calm Calm - N/A   Clear
3:56 AM 35.1 °F 32.2 °F 27.0 °F 72% 30.02 in 10.0 mi East 3.5 mph - N/A   Clear
4:56 AM 30.9 °F - 26.1 °F 82% 30.02 in 10.0 mi Calm Calm - N/A   Clear
5:56 AM 33.1 °F 27.7 °F 28.0 °F 82% 30.01 in 10.0 mi NE 5.8 mph - N/A   Clear
6:56 AM 32.0 °F - 27.0 °F 82% 30.01 in 10.0 mi Calm Calm - N/A   Clear
7:56 AM 32.0 °F - 28.0 °F 85% 30.01 in 10.0 mi Calm Calm - N/A   Scattered Clouds
8:56 AM 34.0 °F - 28.9 °F 82% 30.01 in 10.0 mi Calm Calm - N/A   Overcast
9:56 AM 35.1 °F - 28.9 °F 78% 30.01 in 10.0 mi Calm Calm - N/A   Overcast
10:56 AM 35.1 °F - 30.0 °F 82% 29.99 in 10.0 mi Calm Calm - N/A   Overcast
11:56 AM 36.0 °F 33.3 °F 30.0 °F 79% 29.96 in 10.0 mi NNW 3.5 mph - N/A   Mostly Cloudy
12:56 PM 37.9 °F - 28.9 °F 70% 29.93 in 10.0 mi Calm Calm - N/A   Mostly Cloudy
1:56 PM 37.0 °F 33.3 °F 30.0 °F 76% 29.92 in 8.0 mi NNW 4.6 mph - N/A   Overcast
2:56 PM 37.0 °F - 30.0 °F 76% 29.91 in 10.0 mi Calm Calm - N/A   Overcast
3:56 PM 35.1 °F - 30.9 °F 85% 29.91 in 3.0 mi Calm Calm - 0.00 in Rain Light Rain
4:56 PM 36.0 °F - 30.9 °F 82% 29.92 in 8.0 mi Calm Calm - 0.03 in Rain Light Rain
5:21 PM 35.6 °F 31.7 °F 32.0 °F 87% 29.88 in 3.0 mi SE 4.6 mph - 0.01 in Rain Light Rain
5:56 PM 35.1 °F 31.0 °F 32.0 °F 89% 29.91 in 7.0 mi SSE 4.6 mph - 0.01 in   Overcast
6:56 PM 36.0 °F - 32.0 °F 86% 29.92 in 4.0 mi Calm Calm - 0.00 in Rain Light Rain
7:15 PM 35.6 °F - 33.8 °F 93% 29.88 in 4.0 mi Calm Calm - 0.01 in Rain Light Rain
7:48 PM 35.6 °F 31.7 °F 33.8 °F 93% 29.89 in 5.0 mi SW 4.6 mph - 0.03 in   Overcast
7:56 PM 36.0 °F 32.1 °F 32.0 °F 86% 29.94 in 6.0 mi West 4.6 mph - 0.03 in Rain Light Rain
8:56 PM 36.0 °F 29.0 °F 30.9 °F 82% 29.93 in 10.0 mi SSW 9.2 mph - 0.01 in   Overcast
9:56 PM 36.0 °F 31.1 °F 30.0 °F 79% 29.95 in 10.0 mi West 5.8 mph - N/A   Overcast
10:56 PM 36.0 °F - 30.0 °F 79% 29.97 in 10.0 mi Calm Calm - N/A   Mostly Cloudy
11:56 PM 34.0 °F 28.0 °F 27.0 °F 75% 29.99 in 10.0 mi West 6.9 mph - N/A   Scattered Clouds